Total_Precipitation_Accumulation
0.00 0.00 0.00 0.00 0.01 0.00 0.00 0.00 0.00 0.00 0.00 0.00 0.00 0.00 0.00 0.00 0.00 0.00 0.00 0.00 0.01 0.02 0.04 0.02 0.01 0.01 0.03 0.02 0.03 0.05 0.03 0.02 0.02 0.06 0.10 0.16 0.10 0.04 0.05 0.12 0.15 0.04 0.13
0.00 0.00 0.00 0.00 0.01 0.00 0.00 0.00 0.00 0.00 0.00 0.00 0.00 0.00 0.00 0.00 0.00 0.00 0.00 0.00 0.01 0.02 0.02 0.01 0.01 0.02 0.04 0.03 0.02 0.00 0.00 0.00 0.01 0.06 0.17 0.13 0.10 0.09 0.06 0.16 0.08 0.06 0.10
0.00 0.00 0.00 0.00 0.01 0.00 0.00 0.00 0.00 0.00 0.00 0.00 0.00 0.00 0.00 0.00 0.00 0.00 0.00 0.00 0.00 0.05 0.07 0.02 0.05 0.06 0.05 0.02 0.00 0.00 0.00 0.00 0.01 0.04 0.20 0.08 0.08 0.10 0.08 0.10 0.08 0.10 0.08
0.00 0.00 0.00 0.00 0.00 0.00 0.00 0.00 0.01 0.02 0.01 0.00 0.02 0.02 0.04 0.02 0.06 0.13 0.06 0.01 0.02 0.08 0.14 0.07 0.10 0.07 0.05 0.01 0.00 0.00 0.00 0.00 0.02 0.04 0.03 0.09 0.08 0.11 0.05 0.04 0.07 0.05 0.05
0.00 0.00 0.00 0.00 0.00 0.01 0.00 0.00 0.02 0.02 0.02 0.01 0.01 0.01 0.01 0.02 0.09 0.16 0.17 0.03 0.06 0.09 0.20 0.23 0.26 0.12 0.04 0.00 0.00 0.00 0.00 0.03 0.08 0.18 0.06 0.12 0.07 0.18 0.10 0.10 0.09 0.10 0.14
0.00 0.00 0.00 0.00 0.03 0.05 0.01 0.01 0.00 0.02 0.16 0.06 0.02 0.02 0.01 0.02 0.12 0.27 0.19 0.11 0.12 0.16 0.25 0.32 0.26 0.05 0.02 0.01 0.00 0.00 0.01 0.02 0.07 0.16 0.05 0.16 0.08 0.13 0.06 0.03 0.03 0.02 0.02
0.00 0.00 0.00 0.00 0.02 0.19 0.21 0.03 0.09 0.10 0.31 0.28 0.09 0.08 0.05 0.11 0.13 0.35 0.25 0.29 0.43 0.53 0.34 0.33 0.07 0.03 0.01 0.00 0.00 0.01 0.02 0.01 0.10 0.10 0.09 0.15 0.10 0.09 0.02 0.01 0.01 0.01 0.01
0.00 0.00 0.00 0.00 0.03 0.13 0.38 0.77 0.92 1.08 1.09 0.74 0.68 0.68 0.87 1.50 1.30 1.13 0.81 0.89 0.84 0.73 0.69 0.42 0.14 0.00 0.00 0.00 0.00 0.01 0.03 0.03 0.08 0.08 0.03 0.09 0.09 0.07 0.02 0.01 0.00 0.01 0.01
0.00 0.00 0.01 0.03 0.16 0.19 0.35 0.70 1.53 3.00 4.28 4.78 3.80 3.38 3.38 2.73 2.34 2.09 1.79 1.50 1.40 0.91 0.52 0.48 0.05 0.01 0.00 0.00 0.00 0.02 0.04 0.01 0.06 0.10 0.02 0.01 0.04 0.05 0.02 0.01 0.01 0.01 0.01
0.00 0.01 0.03 0.04 0.08 0.21 0.54 0.46 0.53 1.18 3.61 5.15 5.65 4.66 3.27 2.18 2.32 2.99 2.87 2.21 1.70 1.21 0.78 0.54 0.43 0.17 0.06 0.04 0.02 0.01 0.00 0.00 0.00 0.03 0.01 0.00 0.02 0.01 0.02 0.02 0.02 0.01 0.01
0.01 0.03 0.00 0.01 0.03 0.06 0.18 0.22 0.39 0.67 0.56 1.27 2.61 3.69 2.98 2.17 1.68 1.30 1.63 1.63 1.38 1.26 0.93 0.70 0.46 0.24 0.18 0.16 0.11 0.05 0.00 0.00 0.00 0.00 0.00 0.01 0.01 0.01 0.02 0.02 0.02 0.01 0.01
0.00 0.01 0.00 0.00 0.01 0.05 0.06 0.13 0.14 0.25 0.42 1.16 1.07 1.52 1.68 1.78 1.58 1.01 0.80 0.90 1.17 0.93 0.75 0.69 0.32 0.26 0.24 0.09 0.05 0.05 0.01 0.00 0.00 0.00 0.00 0.01 0.01 0.02 0.02 0.02 0.01 0.01 0.01
0.00 0.00 0.00 0.01 0.01 0.06 0.07 0.09 0.06 0.08 0.19 1.11 1.29 0.73 0.84 1.04 0.96 0.78 0.44 0.59 0.85 0.86 0.45 0.31 0.19 0.18 0.21 0.07 0.01 0.03 0.00 0.00 0.00 0.00 0.00 0.01 0.02 0.02 0.01 0.01 0.01 0.01 0.01
0.00 0.00 0.00 0.01 0.02 0.01 0.01 0.03 0.03 0.05 0.08 0.56 1.30 0.67 0.42 0.72 0.35 0.43 0.23 0.26 0.40 0.45 0.37 0.26 0.15 0.21 0.20 0.15 0.01 0.00 0.00 0.00 0.00 0.00 0.00 0.01 0.03 0.02 0.01 0.01 0.01 0.01 0.01
0.00 0.00 0.00 0.01 0.02 0.02 0.01 0.01 0.02 0.04 0.04 0.17 0.67 0.59 0.24 0.31 0.16 0.20 0.14 0.15 0.16 0.22 0.43 0.43 0.31 0.26 0.23 0.13 0.01 0.00 0.00 0.00 0.00 0.00 0.00 0.01 0.02 0.02 0.01 0.02 0.02 0.01 0.01
0.00 0.00 0.00 0.02 0.02 0.03 0.01 0.01 0.02 0.03 0.05 0.07 0.20 0.25 0.14 0.16 0.12 0.08 0.09 0.14 0.10 0.18 0.38 0.49 0.46 0.38 0.27 0.10 0.04 0.00 0.00 0.00 0.00 0.00 0.00 0.00 0.01 0.02 0.02 0.02 0.02 0.02 0.02
0.00 0.00 0.01 0.02 0.03 0.03 0.01 0.01 0.02 0.03 0.05 0.08 0.16 0.20 0.18 0.16 0.14 0.13 0.07 0.11 0.14 0.15 0.32 0.45 0.56 0.62 0.38 0.16 0.02 0.00 0.00 0.00 0.00 0.00 0.00 0.00 0.00 0.01 0.02 0.03 0.02 0.01 0.02
0.00 0.00 0.00 0.02 0.03 0.03 0.02 0.01 0.02 0.03 0.06 0.07 0.18 0.33 0.31 0.23 0.24 0.16 0.10 0.10 0.14 0.20 0.36 0.41 0.43 0.64 0.39 0.13 0.01 0.00 0.00 0.00 0.00 0.00 0.00 0.00 0.00 0.00 0.01 0.02 0.02 0.02 0.03
0.00 0.00 0.00 0.01 0.03 0.02 0.02 0.02 0.01 0.03 0.08 0.08 0.19 0.53 0.62 0.62 0.29 0.23 0.18 0.12 0.16 0.26 0.41 0.44 0.39 0.47 0.27 0.11 0.00 0.00 0.00 0.00 0.00 0.00 0.00 0.00 0.00 0.00 0.00 0.00 0.01 0.01 0.02
0.00 0.00 0.00 0.01 0.03 0.02 0.02 0.02 0.03 0.04 0.15 0.07 0.13 0.66 0.71 1.17 0.97 0.35 0.22 0.13 0.16 0.22 0.39 0.49 0.43 0.31 0.16 0.04 0.00 0.00 0.00 0.00 0.00 0.00 0.00 0.00 0.00 0.00 0.00 0.00 0.00 0.00 0.00
0.00 0.00 0.00 0.02 0.04 0.02 0.02 0.03 0.04 0.05 0.11 0.09 0.17 0.36 0.68 0.88 1.60 0.91 0.47 0.17 0.14 0.16 0.21 0.31 0.40 0.24 0.22 0.04 0.00 0.01 0.01 0.00 0.00 0.00 0.00 0.00 0.00 0.00 0.00 0.00 0.00 0.00 0.00
0.00 0.00 0.00 0.01 0.02 0.01 0.01 0.01 0.02 0.02 0.07 0.11 0.19 0.29 0.36 0.53 0.94 1.26 0.70 0.45 0.21 0.21 0.19 0.31 0.31 0.18 0.16 0.04 0.00 0.01 0.03 0.03 0.01 0.00 0.00 0.00 0.00 0.00 0.00 0.00 0.00 0.00 0.00
0.00 0.00 0.00 0.01 0.01 0.02 0.01 0.02 0.02 0.03 0.06 0.11 0.27 0.50 0.33 0.35 0.71 0.94 0.88 0.68 0.41 0.31 0.18 0.13 0.22 0.13 0.07 0.05 0.00 0.00 0.02 0.02 0.01 0.01 0.00 0.00 0.00 0.00 0.00 0.00 0.00 0.00 0.00
0.00 0.00 0.00 0.00 0.01 0.01 0.01 0.02 0.02 0.02 0.03 0.03 0.04 0.24 0.44 0.24 0.41 0.72 0.72 0.65 0.47 0.32 0.31 0.13 0.16 0.15 0.08 0.03 0.02 0.00 0.00 0.00 0.01 0.03 0.02 0.01 0.00 0.00 0.00 0.00 0.00 0.00 0.00
0.00 0.00 0.00 0.00 0.01 0.01 0.02 0.01 0.01 0.01 0.01 0.02 0.03 0.06 0.30 0.41 0.23 0.50 0.63 0.72 0.53 0.40 0.32 0.21 0.14 0.14 0.09 0.04 0.00 0.02 0.01 0.01 0.01 0.03 0.01 0.00 0.00 0.00 0.00 0.00 0.00 0.00 0.00
0.00 0.00 0.00 0.01 0.02 0.01 0.01 0.01 0.00 0.01 0.01 0.02 0.03 0.04 0.09 0.27 0.50 0.55 0.66 0.59 0.62 0.41 0.31 0.31 0.18 0.13 0.09 0.04 0.04 0.02 0.01 0.01 0.00 0.01 0.01 0.01 0.00 0.00 0.00 0.00 0.00 0.00 0.00